BAW168 EGLL-EGPH

Flight info

Callsign BAW168
Flight time 0h 55m
Altitude 32000
Route ULTIB T420 TNT UN57 POL UN601 RIBEL DCT INPIP
Aircraft B77W/H-SDE1E2E3FGHIJ2J3J4J5M1RWXY/LB1D1

Departure

Time 2026-04-25 21:04
Airport London Heathrow Airport (EGLL)

Arrival

Time 2026-04-25 22:00
Airport Edinburgh Airport (EGPH)
Time Latitude Longitude Altitude Speed Heading
2026-04-25 20:18 51.46982 -0.47479 95 ft 0 kts 269°
2026-04-25 20:45 51.46982 -0.47478 68 ft 2 kts 269°
2026-04-25 20:46 51.46982 -0.47447 94 ft 3 kts 269°
2026-04-25 20:46 51.46982 -0.47415 92 ft 3 kts 287°
2026-04-25 20:46 51.46972 -0.47387 93 ft 3 kts 325°
2026-04-25 20:46 51.46955 -0.47375 90 ft 2 kts 359°
2026-04-25 20:47 51.46954 -0.47375 90 ft 0 kts 359°
2026-04-25 20:48 51.46955 -0.47375 90 ft 0 kts 359°
2026-04-25 20:50 51.46965 -0.47363 93 ft 5 kts 48°
2026-04-25 20:50 51.46966 -0.47345 93 ft 1 kts 94°
2026-04-25 20:51 51.46957 -0.47332 92 ft 2 kts 146°
2026-04-25 20:51 51.46935 -0.47336 94 ft 5 kts 192°
2026-04-25 20:51 51.46873 -0.47355 94 ft 4 kts 182°
2026-04-25 20:51 51.46811 -0.47350 94 ft 13 kts 178°
2026-04-25 20:52 51.46703 -0.47350 92 ft 10 kts 182°
2026-04-25 20:52 51.46662 -0.47405 95 ft 15 kts 252°
2026-04-25 20:52 51.46657 -0.47722 94 ft 27 kts 269°
2026-04-25 20:52 51.46654 -0.47975 94 ft 16 kts 270°
2026-04-25 20:53 51.46654 -0.48120 97 ft 12 kts 270°
2026-04-25 20:53 51.46654 -0.48125 97 ft 0 kts 270°
2026-04-25 20:53 51.46654 -0.48126 97 ft 1 kts 270°
2026-04-25 20:54 51.46654 -0.48141 97 ft 0 kts 270°
2026-04-25 20:57 51.46654 -0.48172 99 ft 10 kts 270°
2026-04-25 20:57 51.46653 -0.48352 99 ft 18 kts 269°
2026-04-25 20:58 51.46652 -0.48546 99 ft 14 kts 269°
2026-04-25 20:58 51.46651 -0.48681 98 ft 9 kts 266°
2026-04-25 20:58 51.46626 -0.48743 100 ft 0 kts 216°
2026-04-25 21:00 51.46541 -0.48786 96 ft 10 kts 174°
2026-04-25 21:01 51.46484 -0.48736 101 ft 9 kts 129°
2026-04-25 21:01 51.46478 -0.48691 101 ft 0 kts 91°
2026-04-25 21:03 51.46478 -0.48689 101 ft 1 kts 91°
2026-04-25 21:03 51.46479 -0.48473 98 ft 47 kts 90°
2026-04-25 21:04 51.46484 -0.47270 97 ft 168 kts 88°
2026-04-25 21:04 51.46510 -0.45087 1062 ft 196 kts 90°
2026-04-25 21:04 51.46537 -0.42817 2438 ft 217 kts 87°
2026-04-25 21:04 51.46911 -0.40355 2931 ft 239 kts 60°
2026-04-25 21:05 51.47894 -0.38146 3850 ft 248 kts 51°
2026-04-25 21:05 51.49007 -0.35961 4834 ft 255 kts 50°
2026-04-25 21:05 51.50162 -0.33737 5623 ft 262 kts 50°
2026-04-25 21:05 51.51346 -0.31470 6022 ft 267 kts 50°
2026-04-25 21:06 51.52494 -0.29089 5990 ft 270 kts 61°
2026-04-25 21:06 51.53216 -0.26298 6018 ft 272 kts 71°
2026-04-25 21:06 51.53796 -0.23403 6005 ft 272 kts 72°
2026-04-25 21:06 51.54176 -0.21491 5997 ft 269 kts 71°
2026-04-25 21:07 51.55530 -0.18276 6015 ft 266 kts 31°
2026-04-25 21:07 51.57313 -0.17498 6065 ft 272 kts 356°
2026-04-25 21:07 51.59076 -0.18528 6088 ft 276 kts 322°
2026-04-25 21:07 51.60456 -0.20635 6096 ft 273 kts 316°
2026-04-25 21:08 51.61915 -0.22604 6122 ft 273 kts 324°
2026-04-25 21:08 51.63401 -0.24416 6476 ft 264 kts 321°
2026-04-25 21:08 51.64858 -0.26256 7023 ft 270 kts 324°
2026-04-25 21:08 51.66420 -0.28003 7542 ft 275 kts 327°
2026-04-25 21:09 51.69660 -0.31319 8588 ft 279 kts 328°
2026-04-25 21:09 51.71323 -0.32954 9131 ft 281 kts 329°
2026-04-25 21:09 51.73000 -0.34583 9667 ft 282 kts 329°
2026-04-25 21:10 51.74691 -0.36215 10219 ft 284 kts 329°
2026-04-25 21:10 51.76398 -0.37856 10721 ft 287 kts 329°
2026-04-25 21:10 51.78124 -0.39515 11109 ft 290 kts 329°
2026-04-25 21:10 51.79875 -0.41199 11116 ft 295 kts 329°
2026-04-25 21:11 51.81619 -0.42884 11364 ft 287 kts 328°
2026-04-25 21:11 51.83313 -0.44536 12035 ft 286 kts 328°
2026-04-25 21:11 51.85042 -0.46227 12836 ft 294 kts 328°
2026-04-25 21:11 51.86804 -0.47951 13633 ft 298 kts 328°
2026-04-25 21:12 51.88587 -0.49696 14410 ft 300 kts 328°
2026-04-25 21:12 51.90378 -0.51449 15121 ft 302 kts 328°
2026-04-25 21:12 51.92178 -0.53213 15861 ft 303 kts 328°
2026-04-25 21:12 51.93378 -0.54389 16356 ft 304 kts 327°
2026-04-25 21:13 51.95815 -0.56775 17392 ft 307 kts 327°
2026-04-25 21:13 51.97650 -0.58564 18180 ft 310 kts 327°
2026-04-25 21:13 51.99521 -0.60388 18955 ft 314 kts 327°
2026-04-25 21:13 52.01401 -0.62225 19681 ft 320 kts 327°
2026-04-25 21:14 52.03311 -0.64074 20417 ft 325 kts 330°
2026-04-25 21:14 52.05475 -0.65288 21154 ft 335 kts 350°
2026-04-25 21:14 52.07828 -0.65507 21965 ft 342 kts 358°
2026-04-25 21:14 52.10230 -0.65397 22783 ft 348 kts 360°
2026-04-25 21:15 52.12673 -0.65198 23611 ft 354 kts
2026-04-25 21:15 52.15154 -0.64973 24345 ft 359 kts
2026-04-25 21:15 52.17630 -0.64736 25056 ft 362 kts
2026-04-25 21:15 52.20161 -0.64481 25792 ft 366 kts
2026-04-25 21:16 52.22714 -0.64212 26537 ft 369 kts
2026-04-25 21:16 52.25283 -0.63929 27310 ft 371 kts
2026-04-25 21:16 52.27875 -0.63632 28033 ft 375 kts
2026-04-25 21:16 52.30534 -0.63329 28262 ft 394 kts
2026-04-25 21:17 52.33343 -0.63053 28269 ft 413 kts 358°
2026-04-25 21:17 52.36267 -0.63365 28250 ft 428 kts 348°
2026-04-25 21:17 52.39135 -0.64514 28279 ft 412 kts 340°
2026-04-25 21:17 52.41736 -0.66016 28319 ft 391 kts 337°
2026-04-25 21:18 52.44299 -0.67651 28311 ft 406 kts 336°
2026-04-25 21:18 52.46987 -0.69422 28293 ft 426 kts 336°
2026-04-25 21:18 52.52469 -0.73333 28262 ft 429 kts 329°
2026-04-25 21:19 52.57468 -0.78757 28267 ft 432 kts 324°
2026-04-25 21:19 52.62443 -0.84337 28257 ft 434 kts 324°
2026-04-25 21:20 52.65799 -0.88052 28256 ft 434 kts 324°
2026-04-25 21:20 52.72486 -0.95390 28233 ft 433 kts 325°
2026-04-25 21:21 52.77490 -1.00874 28251 ft 431 kts 324°
2026-04-25 21:21 52.82482 -1.06361 28262 ft 430 kts 324°
2026-04-25 21:22 52.87429 -1.11816 28263 ft 430 kts 324°
2026-04-25 21:22 52.92397 -1.17311 28265 ft 429 kts 324°
2026-04-25 21:23 52.97364 -1.22820 28265 ft 429 kts 324°
2026-04-25 21:23 53.02338 -1.28352 28266 ft 431 kts 324°
2026-04-25 21:24 53.07333 -1.33923 28269 ft 433 kts 324°
2026-04-25 21:24 53.12350 -1.39536 28265 ft 435 kts 324°
2026-04-25 21:25 53.16528 -1.44220 28268 ft 436 kts 324°
2026-04-25 21:25 53.21559 -1.49877 28266 ft 436 kts 324°
2026-04-25 21:26 53.26582 -1.55540 28283 ft 435 kts 324°
2026-04-25 21:26 53.31594 -1.61208 28276 ft 434 kts 324°
2026-04-25 21:27 53.36593 -1.66878 28273 ft 433 kts 324°
2026-04-25 21:27 53.41577 -1.72547 28277 ft 433 kts 324°
2026-04-25 21:28 53.46552 -1.78223 28279 ft 432 kts 324°
2026-04-25 21:28 53.51527 -1.83914 28287 ft 432 kts 324°
2026-04-25 21:29 53.56493 -1.89612 28273 ft 432 kts 324°
2026-04-25 21:29 53.61466 -1.95337 28271 ft 433 kts 324°
2026-04-25 21:30 53.66406 -2.01036 28279 ft 433 kts 324°
2026-04-25 21:30 53.70571 -2.05855 28278 ft 433 kts 323°
2026-04-25 21:31 53.76596 -2.11925 28263 ft 436 kts 334°
2026-04-25 21:31 53.82247 -2.15724 28270 ft 437 kts 336°
2026-04-25 21:32 53.87895 -2.19586 28272 ft 438 kts 335°
2026-04-25 21:32 53.93552 -2.23467 28277 ft 438 kts 335°
2026-04-25 21:33 53.99208 -2.27351 28288 ft 439 kts 335°
2026-04-25 21:33 54.04839 -2.31228 28277 ft 439 kts 335°
2026-04-25 21:34 54.10508 -2.35140 28274 ft 439 kts 335°
2026-04-25 21:34 54.16186 -2.39069 28267 ft 440 kts 335°
2026-04-25 21:35 54.21856 -2.43005 28271 ft 439 kts 335°
2026-04-25 21:35 54.27525 -2.46953 28282 ft 440 kts 335°
2026-04-25 21:36 54.33192 -2.50911 28285 ft 440 kts 335°
2026-04-25 21:36 54.38870 -2.54889 28285 ft 441 kts 335°
2026-04-25 21:37 54.43596 -2.58209 28276 ft 441 kts 335°
2026-04-25 21:37 54.50241 -2.62891 28278 ft 442 kts 335°
2026-04-25 21:38 54.55934 -2.66916 28275 ft 442 kts 335°
2026-04-25 21:38 54.61628 -2.70953 28271 ft 442 kts 335°
2026-04-25 21:39 54.67309 -2.74993 28276 ft 441 kts 335°
2026-04-25 21:39 54.72949 -2.79016 28291 ft 440 kts 335°
2026-04-25 21:40 54.78612 -2.83069 27950 ft 441 kts 335°
2026-04-25 21:40 54.81450 -2.85105 27397 ft 440 kts 335°
2026-04-25 21:40 54.84263 -2.87124 26869 ft 435 kts 335°
2026-04-25 21:41 54.87042 -2.89121 26450 ft 428 kts 335°
2026-04-25 21:41 54.89784 -2.91098 26295 ft 427 kts 335°
2026-04-25 21:41 54.92525 -2.93084 26286 ft 426 kts 335°
2026-04-25 21:41 54.95251 -2.95063 26274 ft 423 kts 335°
2026-04-25 21:42 54.97958 -2.97029 26241 ft 420 kts 335°
2026-04-25 21:42 55.00642 -2.98983 25870 ft 416 kts 335°
2026-04-25 21:42 55.03309 -3.00926 25268 ft 411 kts 335°
2026-04-25 21:42 55.05853 -3.02780 24516 ft 393 kts 335°
2026-04-25 21:43 55.08327 -3.04585 23798 ft 377 kts 335°
2026-04-25 21:43 55.10706 -3.06326 22955 ft 364 kts 335°
2026-04-25 21:43 55.13003 -3.08008 22125 ft 352 kts 335°
2026-04-25 21:43 55.15230 -3.09641 21352 ft 342 kts 334°
2026-04-25 21:44 55.17391 -3.11224 20719 ft 329 kts 335°
2026-04-25 21:44 55.19457 -3.12738 20496 ft 321 kts 334°
2026-04-25 21:44 55.23597 -3.15786 20310 ft 323 kts 334°
2026-04-25 21:45 55.25678 -3.17319 20276 ft 325 kts 334°
2026-04-25 21:45 55.27053 -3.18331 20270 ft 323 kts 334°
2026-04-25 21:45 55.29848 -3.20190 20003 ft 325 kts 346°
2026-04-25 21:45 55.32111 -3.20320 19342 ft 335 kts
2026-04-25 21:46 55.34403 -3.19914 18645 ft 330 kts
2026-04-25 21:46 55.36728 -3.19491 17889 ft 340 kts
2026-04-25 21:46 55.39104 -3.19069 17053 ft 345 kts
2026-04-25 21:46 55.41484 -3.18660 16047 ft 341 kts
2026-04-25 21:47 55.43813 -3.18273 15301 ft 331 kts
2026-04-25 21:47 55.46078 -3.17906 14570 ft 323 kts
2026-04-25 21:47 55.48292 -3.17554 13822 ft 316 kts
2026-04-25 21:47 55.50458 -3.17211 13036 ft 310 kts
2026-04-25 21:48 55.52588 -3.16875 12260 ft 304 kts
2026-04-25 21:48 55.54683 -3.16545 11496 ft 300 kts
2026-04-25 21:48 55.56744 -3.16221 10762 ft 295 kts
2026-04-25 21:48 55.58777 -3.15902 10039 ft 291 kts
2026-04-25 21:49 55.60785 -3.15584 9254 ft 288 kts
2026-04-25 21:49 55.62764 -3.15273 8666 ft 279 kts
2026-04-25 21:49 55.64666 -3.14970 8438 ft 275 kts
2026-04-25 21:49 55.66603 -3.14665 8011 ft 285 kts
2026-04-25 21:50 55.68623 -3.14398 7292 ft 294 kts 358°
2026-04-25 21:50 55.70626 -3.15193 6722 ft 297 kts 331°
2026-04-25 21:50 55.72118 -3.17354 6468 ft 268 kts 304°
2026-04-25 21:50 55.72680 -3.19260 6301 ft 250 kts 284°
2026-04-25 21:51 55.72951 -3.23152 5704 ft 236 kts 271°
2026-04-25 21:51 55.72987 -3.26054 5069 ft 234 kts 270°
2026-04-25 21:51 55.73000 -3.28957 4442 ft 238 kts 270°
2026-04-25 21:51 55.73007 -3.31815 4126 ft 224 kts 269°
2026-04-25 21:52 55.73013 -3.34602 3996 ft 220 kts 269°
2026-04-25 21:52 55.73020 -3.37185 3960 ft 199 kts 269°
2026-04-25 21:52 55.73039 -3.39581 4016 ft 189 kts 269°
2026-04-25 21:52 55.73062 -3.41904 3993 ft 186 kts 269°
2026-04-25 21:53 55.73202 -3.44167 3966 ft 185 kts 290°
2026-04-25 21:53 55.73979 -3.45952 4008 ft 192 kts 314°
2026-04-25 21:53 55.74985 -3.47580 4008 ft 198 kts 314°
2026-04-25 21:53 55.75990 -3.49234 4004 ft 196 kts 314°
2026-04-25 21:54 55.76982 -3.50869 3991 ft 193 kts 314°
2026-04-25 21:54 55.77955 -3.52489 3977 ft 191 kts 314°
2026-04-25 21:54 55.78938 -3.54105 3945 ft 194 kts 315°
2026-04-25 21:54 55.79932 -3.55774 3669 ft 200 kts 314°
2026-04-25 21:55 55.80959 -3.57511 3212 ft 204 kts 315°
2026-04-25 21:55 55.81941 -3.59234 3000 ft 202 kts 314°
2026-04-25 21:55 55.83088 -3.60660 2974 ft 201 kts 344°
2026-04-25 21:55 55.84444 -3.60636 2996 ft 198 kts 20°
2026-04-25 21:56 55.85712 -3.59736 3008 ft 196 kts 24°
2026-04-25 21:56 55.86550 -3.59122 2944 ft 197 kts 24°
2026-04-25 21:56 55.87960 -3.57292 2600 ft 179 kts 57°
2026-04-25 21:56 55.88707 -3.55502 2408 ft 181 kts 56°
2026-04-25 21:57 55.89408 -3.53686 2148 ft 178 kts 60°
2026-04-25 21:57 55.90046 -3.51834 1876 ft 170 kts 61°
2026-04-25 21:57 55.90636 -3.50096 1693 ft 153 kts 60°
2026-04-25 21:57 55.91155 -3.48569 1464 ft 139 kts 60°
2026-04-25 21:58 55.91645 -3.47122 1312 ft 139 kts 60°
2026-04-25 21:58 55.92149 -3.45639 1073 ft 139 kts 60°
2026-04-25 21:58 55.92647 -3.44171 867 ft 137 kts 59°
2026-04-25 21:58 55.93139 -3.42722 687 ft 135 kts 59°
2026-04-25 21:59 55.93624 -3.41294 491 ft 135 kts 60°
2026-04-25 21:59 55.94119 -3.39833 314 ft 141 kts 60°
2026-04-25 21:59 55.94631 -3.38326 120 ft 141 kts 59°
2026-04-25 22:00 55.95261 -3.36471 107 ft 48 kts 59°
2026-04-25 22:00 55.95415 -3.36015 107 ft 38 kts 58°
2026-04-25 22:00 55.95540 -3.35651 107 ft 31 kts 59°
2026-04-25 22:00 55.95509 -3.35454 107 ft 18 kts 144°
2026-04-25 22:01 55.95486 -3.35427 107 ft 0 kts 148°
2026-04-25 22:02 55.95476 -3.35416 108 ft 0 kts 148°
2026-04-25 22:02 55.95470 -3.35412 108 ft 3 kts 159°
2026-04-25 22:02 55.95421 -3.35422 110 ft 11 kts 214°
2026-04-25 22:02 55.95405 -3.35487 110 ft 10 kts 235°
2026-04-25 22:03 55.95353 -3.35627 108 ft 20 kts 239°
2026-04-25 22:03 55.95305 -3.35773 107 ft 10 kts 239°
2026-04-25 22:03 55.95259 -3.35911 106 ft 16 kts 239°
2026-04-25 22:03 55.95209 -3.36059 108 ft 10 kts 238°
2026-04-25 22:04 55.95161 -3.36167 109 ft 11 kts 200°
2026-04-25 22:04 55.95111 -3.36080 109 ft 13 kts 110°
2026-04-25 22:04 55.95071 -3.35942 111 ft 8 kts 141°
2026-04-25 22:04 55.95028 -3.35974 108 ft 7 kts 246°
2026-04-25 22:05 55.95019 -3.36045 111 ft 0 kts 262°